Regional Weather Roundup
Issued by NWS

Home | Current Version | Previous Version | Text Only | Print | Product List | Glossary Off
Versions: 1 2 3 4 5 6 7 8 9 10 11 12 13 14 15 16 17 18 19 20 21 22 23 24 25 26 27 28 29 30 31 32 33 34 35 36 37 38 39 40 41 42 43 44 45 46 47 48 49 50

000
ASUS43 KIND 301859
RWRIN

WEATHER ROUNDUP FOR INDIANA
NATIONAL WEATHER SERVICE INDIANAPOLIS IN
300 PM EDT SAT APR 30 2016

NOTE: "FAIR" INDICATES FEW OR NO CLOUDS BELOW 12,000 FEET WITH NO
SIGNIFICANT WEATHER AND/OR OBSTRUCTIONS TO VISIBILITY.

* - STATION DOES NOT REPORT WEATHER SUCH AS PRECIPITATION OR FOG.

+ - STATION NOT QUALITY CONTROLLED BY THE NATIONAL WEATHER SERVICE.
    USE DATA WITH CAUTION...ESPECIALLY DEWPOINT AND RELATIVE
    HUMIDITY OBSERVATIONS.

INZ001>003-010>013-019-020-302000-
NORTHWEST INDIANA

CITY           SKY/WX    TMP DP  RH WIND       PRES   REMARKS
GARY /AIRPORT/ LGT RAIN  48  48 100 E14G29    29.95F
RENSSELAER +   LGT RAIN  50  48  93 E17G26    29.91F
VALPARAISO     LGT RAIN  46  45  93 E23       29.94F FOG

$$

LMZ046-743>745-302000-
SOUTHERN LAKE MICHIGAN

STATION/POSITION TIME  TEMP    WIND        PRES    WAVE
                       AIR SEA DIR/SP/G            HT
                 (UTC) (F)     (DEG/KT/KT) (MB)    (FT)
BURNS HARBOR     1806   46      90/ 10/ 16 1015.9F
MICHIGAN CITY    1800   46      60/ 13/ 15   N/A

$$

INZ004-005-014>016-021>024-302000-
NORTH CENTRAL INDIANA

CITY           SKY/WX    TMP DP  RH WIND       PRES   REMARKS
ELKHART        LGT RAIN  48  48 100 E10       30.01F
GOSHEN         LGT RAIN  48  44  86 E13       30.01F FOG
SOUTH BEND     LGT RAIN  47  44  90 E14G21    30.01F FOG

$$

INZ006>009-017-018-025>027-302000-
NORTHEAST INDIANA

CITY           SKY/WX    TMP DP  RH WIND       PRES   REMARKS
ANGOLA *+      PTSUNNY   48  45  87 E10       30.02F
FORT WAYNE     LGT RAIN  48  45  89 E13       30.03S FOG

$$

INZ028-029-035-036-043>045-051>053-302000-
WEST CENTRAL INDIANA

CITY           SKY/WX    TMP DP  RH WIND       PRES   REMARKS
CRAWFORDSVL +  LGT RAIN  54  54 100 SE16      29.88F
GREENCASTLE +  CLOUDY    54  54 100 SE8       29.90F FOG
LAFAYETTE      RAIN      51  50  96 E12       29.90R FOG
TERRE HAUTE    CLOUDY    59  56  89 SE14      29.87S

$$

INZ030>032-037>040-046>048-054>057-064-065-302000-
CENTRAL INDIANA

CITY           SKY/WX    TMP DP  RH WIND       PRES   REMARKS
ANDERSON       LGT RAIN  50  50 100 E12       29.93F
COLUMBUS       LGT RAIN  57  57 100 SE9       29.92S FOG
INDIANAPOLIS   RAIN      55  52  89 E10       29.90F FOG
-EAGLE CREEK   LGT RAIN  54  52  93 E7        29.91F FOG
KOKOMO *+      CLOUDY    48  45  87 E16G25    29.93F
SHELBYVILLE    LGT RAIN  58  54  86 SE12      29.91S

$$

INZ033-034-041-042-049-050-058-059-302000-
EAST CENTRAL INDIANA

CITY           SKY/WX    TMP DP  RH WIND       PRES   REMARKS
MUNCIE         RAIN      52  49  89 NE12      29.94F FOG

$$

INZ060-061-067>069-081>083-085>088-302000-
SOUTHWEST INDIANA

CITY           SKY/WX    TMP DP  RH WIND       PRES   REMARKS
EVANSVILLE     LGT RAIN  65  62  90 SE3       29.86F
HUNTINGBURG *+ CLOUDY    63  61  94 S6        29.87F

$$

INZ062-063-066-070>080-084-089>092-302000-
SOUTH CENTRAL AND SOUTHEAST INDIANA

CITY           SKY/WX    TMP DP  RH WIND       PRES   REMARKS
BLOOMINGTON    LGT RAIN  59  56  89 SE10      29.89F
MADISON *+     CLOUDY    59  55  88 SE14      29.93F
SEYMOUR +      LGT RAIN  61  57  88 CALM      29.92R

$$





USA.gov is the U.S. government's official web portal to all federal, state and local government web resources and services.